CBERS 1 DEB, 30791

Orbit data source: Space-Track

CBERS 1 DEB, 30791 is space debris in SSO originally from a launch on Thu, 14 Oct 1999 UTC launched from the Taiyaun Space Center, China (TSC). Debris objects in space refer to the collection of defunct objects orbiting the Earth. Examples of debris include non-operational satellites, rocket bodies, and fragments generated from explosions, collisions, or faulty payload assembly.

Loading next visibility...
Identifier
30791, 1999-057PA
Orbit
SSO
Country
Flag of UnknownUnknown / CHBZ
Related business
Manufacturer
Unknown
Mission
Spacecraft
Bus & Motor
Unknown
Mass
Unknown
Launch date (UTC)
1999-10-14 (26 years ago)
Launch vehicle
Unknown
Launch site
Taiyaun Space Center, China (TSC)
Object type
Payload
Rocket body
Debris
Shape & HBR
Unknown shape, 0.1 m
Radar Cross Section
Small (<0.1 m²)

Expand to show TLE details & history
Last TLE update: 18 hours ago

TLE from 18 hours ago
0 CBERS 1 DEB
1 30791U 99057PA  25346.92035906  .00010329  00000-0  18935-2 0  9997
2 30791  98.5518  37.8456 0004789 193.1497 340.8118 14.65960666991264
Epoch: 2025-12-12T22:05Z
TLE epoch observation values (Epoch: 2025-12-12T22:05:19.022Z)
Latitude
5.90745°
Longitude
165.548°
Altitude
673.212 km
Speed
7.522 km/s
True Right ascension
14h 34m 55s
True Declination
5° 52' 19"
Sunlit
Object was in daylight at epoch
Visualization orbit readout
Latitude
Unknown
Longitude
Unknown
Altitude
Unknown
Speed
Unknown
Apparent Right ascension
Unknown
Apparent Declination
Unknown
Sunlit
N/A
Visualization observer readout
Local Sidereal Time
14:08:55
Azimuth
Unknown
Elevation
Unknown
Doppler factor
Unknown
Orbital elements
Apogee altitude
674.458 km
Perigee altitude
667.707 km
Semi-major axis
7,049.22 km
Eccentricity
0.00048
Inclination
98.5518°
RAAN
37.8456°
Arg. of periapsis
193.1497°
True anomaly
340.79375°
Mean anomaly
340.8118°
Eccentric anomaly
340.80278°
Mean motion
3.66717 °/min
Orbital period
98.17 mins
BSTAR
0.0018935
Loading maneuver chart data...
Computing Atmospheric mass density...

Documentation

Showing up to 5 results
|